User: anonymous   Login
Location: Mentone
(34.5413°N, 85.5351°W)
Time: 18:25:49
(UTC-05:00)
Language:

ADEOS Rocket - Orbit

View from above orbital plane
View from above orbital plane
View from above satellite
View from above satellite

Ground track
Ground track

The orbit data is extracted from the following two-line orbital elements,

1 24279U 96046C   17141.86609317 -.00000026 +00000-0 +14373-4 0  9994
2 24279 098.7514 089.0759 0300184 356.0314 063.3196 13.47084603020428
Epoch (UTC): 21 May 2017 20:47:10
Eccentricity: 0.0300184
inclination: 98.7514°
perigee height: 859 km
apogee height: 1307 km
right ascension of ascending node: 89.0759°
argument of perigee: 356.0314°
revolutions per day: 13.47084603
mean anomaly at epoch: 63.3196°
orbit number at epoch: 2042

The dashed part of the orbit path shows where the satellite is in the earth's shadow,  

DLR